Regional Weather Roundup
Issued by NWS

Home | Current Version | Previous Version | Graphics & Text | Print | Product List | Glossary On
Versions: 1 2 3 4 5 6 7 8 9 10 11 12 13 14 15 16 17 18 19 20 21 22 23 24 25 26 27 28 29 30 31 32 33 34 35 36 37 38 39 40 41 42 43 44 45 46 47 48 49 50
000
ASUS43 KDTX 011701
RWRMI
MICHIGAN HOURLY REGIONAL WEATHER ROUNDUP
NATIONAL WEATHER SERVICE DETROIT/PONTIAC MI
100 PM EDT WED JUL 01 2015

NOTE: "FAIR" INDICATES FEW OR NO CLOUDS BELOW 12,000 FEET WITH NO
SIGNIFICANT WEATHER AND/OR OBSTRUCTION TO VISIBILITY.

MIZ047>049-052>055-059>063-066>070-074>076-081>083-011800-
SOUTHEAST LOWER MICHIGAN

CITY           SKY/WX    TMP DP  RH WIND       PRES   REMARKS
ADRIAN         CLOUDY    67  57  70 NW12      29.94R
ALMA           CLOUDY    62  55  79 NW7       29.94S
ANN ARBOR      CLOUDY    67  58  72 NW7       29.92R
BAD AXE        CLOUDY    63  58  83 NW5       29.91R
CARO           CLOUDY    65  59  80 W6        29.91S
DETROIT CITY   CLOUDY    71  58  63 NW8       29.90R
DETROIT        CLOUDY    70  60  70 W9        29.91R
FLINT          CLOUDY    65  57  75 W10       29.93R
GROSSE ILE     CLOUDY    72  61  68 W6        29.90R
HILLSDALE      CLOUDY    64  58  82 W9        29.96R
HOWELL         CLOUDY    62  58  85 W10       29.93S

CITY           SKY/WX    TMP DP  RH WIND       PRES   REMARKS
JACKSON        CLOUDY    61  56  83 NW9       29.95R
LAMBERTVILLE   CLOUDY    71  59  65 W7        29.93R
LANSING        CLOUDY    60  55  83 W9        29.96R
LAPEER         CLOUDY    61  57  86 NW7       29.92R
MASON          CLOUDY    59  55  87 W6        29.95R
MONROE         CLOUDY    70  60  70 NW6       29.91R
MT. CLEMENS    CLOUDY    69  60  70 W9        29.89R
PONTIAC        CLOUDY    64  57  78 W9        29.91R
PORT HOPE        N/A     60  58  92 NW6       29.89R
PORT HURON     PTSUNNY   68  61  77 NW5       29.89S
TRI CITIES     CLOUDY    64  55  72 SW7       29.93S
MIDLAND        CLOUDY    63  53  69 W6        29.92S
TROY           CLOUDY    68  59  72 W6        29.93R
SAGINAW HB     CLOUDY    63  55  77 W7        29.92R
$$
MIZ043>046-050>051-056>058-064>065-071>073-077>080-011800-
SOUTHWEST LOWER MICHIGAN

CITY           SKY/WX    TMP DP  RH WIND       PRES   REMARKS
BATTLE CREEK   PTSUNNY   66  53  63 W7        29.96S
BENTON HARBOR  PTSUNNY   60  50  69 VRB6G17   29.99S
BIG RAPIDS     CLOUDY    60  50  68 W5        29.94S
COLDWATER      PTSUNNY   68  56  66 NW7       29.95F
FREMONT        CLOUDY    58  52  79 W9        29.96S
HOLLAND        CLOUDY    62  51  67 NW12      29.98S
GRAND RAPIDS   PTSUNNY   63  50  62 W6        29.95S
IONIA          CLOUDY    64  51  62 W7        29.94S
KALAMAZOO      PTSUNNY   68  51  54 NW9       29.96S
LUDINGTON      CLOUDY    54  50  87 N8G17     29.99R
MARSHALL       PTSUNNY   67  54  64 W7        29.95R
MOUNT PLEASANT CLOUDY    64  53  68 W3        29.92S
MUSKEGON       CLOUDY    59  50  72 W10       29.97R
SOUTH HAVEN    PTSUNNY   60  49  67 NW12      29.99S
$$
MIZ016>042-011800-
NORTHERN LOWER MICHIGAN

CITY           SKY/WX    TMP DP  RH WIND       PRES   REMARKS
ALPENA         CLOUDY    60  56  86 NW7       29.91R
BEAVER ISLAND  MOSUNNY   59  50  71 NW5       29.95S
BELLAIRE       CLOUDY    58  51  80 W6        29.96R
CADILLAC       CLOUDY    59  51  75 NW3       29.95R
CHARLEVOIX     CLOUDY    55  52  90 NW7       29.98R
FRANKFORT      CLOUDY    55  47  72 N9        29.98S
GAYLORD        CLOUDY    56  55  97 W8        29.93R
GRAYLING       CLOUDY    58  53  84 NW8       29.94S
HARBOR SPRINGS CLOUDY    58  53  84 W3        29.94S
HOUGHTON LAKE  CLOUDY    58  52  80 VRB6      29.94R
MANISTEE       CLOUDY    54  46  76 N8        29.99R
OSCODA         CLOUDY    65  56  72 NW5       29.89S
PELLSTON       CLOUDY    58  53  84 NW10      29.94R
ROGERS CITY    CLOUDY    58  56  91 NW7       29.92R
TRAVERSE CITY  CLOUDY    56  50  80 NW8       29.96R
$$
MIZ007>008-015-011800-
EASTERN UPPER MICHIGAN

CITY           SKY/WX    TMP DP  RH WIND       PRES   REMARKS
KINROSS        CLOUDY    57  52  82 N10       29.93R
MACKINAC ISLAN CLOUDY    59  56  90 N8        29.92S
NEWBERRY       CLOUDY    55  48  76 NW8G16    29.96R
S. S. MARIE    CLOUDY    56  50  80 NW8       29.92R
MUNISING         N/A     52  45  77 N9        30.01R
$$
MIZ004>006-011>014-085-011800-
CENTRAL UPPER MICHIGAN

CITY           SKY/WX    TMP DP  RH WIND       PRES   REMARKS
MANISTIQUE     MOSUNNY   60  49  66 N14G21    29.97R
ESCANABA       SUNNY    N/A N/A N/A N10G16    29.97S
MENOMINEE      PTSUNNY   63  48  59 NW7       29.98F
SAWYER-GWINN   SUNNY     55  43  62 NE14G20   30.02R
$$
MIZ001>003-009>011-084-011800-
WESTERN UPPER MICHIGAN

CITY           SKY/WX    TMP DP  RH WIND       PRES   REMARKS
IRON MOUNTAIN  SUNNY     64  42  44 N10       29.99S
HOUGHTON       SUNNY     63  44  50 CALM      30.02S
COPPER HARBOR    N/A     53  44  71 N8        30.03S
IRONWOOD       SUNNY     64  43  45 NE7       30.01R
$$

ABBREVIATIONS USED IN REMARKS
   TC - TEMPERATURE IN CELSIUS
  WCI - WIND CHILL INDEX
   HX - HEAT INDEX
  VSB - VISIBILITY




USA.gov is the U.S. government's official web portal to all federal, state and local government web resources and services.